Probability
0 0 0 0 0 0 0 0 0 0 0 0 0 0 0 0 0 0 0 0 0 0 0 0 0 0 0 0 0 0 0 0 0 0 0 0 0 0 0 0 0 0 0 0 0 0 0 0 0
0 0 0 0 0 0 0 0 0 0 0 0 0 0 0 0 0 0 0 0 0 0 0 0 0 0 0 0 0 0 0 0 0 0 0 0 0 0 0 0 0 0 0 0 0 0 0 0 0
0 0 0 0 0 0 0 0 0 0 0 0 0 0 0 0 0 0 0 0 0 0 0 0 0 0 0 0 0 0 0 0 0 0 0 0 0 0 0 0 0 0 0 0 0 0 0 0 0
0 0 0 0 0 0 0 0 0 0 0 0 0 0 0 0 0 0 0 0 0 0 0 0 0 0 0 0 0 0 0 0 0 0 0 0 0 0 0 0 0 0 0 0 0 0 0 0 0
0 0 0 0 0 0 0 0 0 0 0 0 0 0 0 0 0 0 0 0 0 0 0 0 0 0 0 0 0 0 0 0 0 0 0 0 0 0 0 0 0 0 0 0 0 0 0 0 0
0 0 0 0 0 0 0 0 0 0 0 0 0 0 0 0 0 0 0 0 0 0 0 0 0 0 0 0 0 0 0 0 0 0 0 0 0 0 0 0 0 0 0 0 0 0 0 0 0
0 0 0 0 0 0 0 0 0 0 0 0 0 0 0 0 0 0 0 0 0 0 0 0 0 0 0 0 0 0 0 0 0 0 0 0 0 0 0 0 0 0 0 0 0 0 0 0 0
0 0 0 0 0 0 0 0 0 0 0 0 0 0 0 0 0 0 0 0 0 0 0 0 0 0 0 0 0 0 0 0 0 0 0 0 0 0 0 0 0 0 0 0 0 0 0 0 0
0 0 0 0 0 0 0 0 0 0 0 0 0 0 0 0 0 0 0 0 0 0 0 0 0 0 0 0 0 0 0 0 0 0 0 0 0 0 0 0 0 0 0 0 0 0 0 0 0
0 0 0 0 0 0 0 0 0 0 0 0 0 0 0 0 0 0 0 0 0 0 0 0 0 0 0 0 0 0 0 0 0 0 0 0 0 0 0 0 0 0 0 0 0 0 0 0 0
0 0 0 0 0 0 0 0 0 0 0 0 0 0 0 0 0 0 0 0 0 0 0 0 0 0 0 0 0 0 0 0 0 0 0 0 0 0 0 0 0 0 0 0 0 0 0 0 0
0 0 0 0 0 0 0 0 0 0 0 0 0 0 0 0 0 0 0 0 0 0 0 0 0 0 0 0 0 0 0 0 0 0 0 0 0 0 0 0 0 0 0 0 0 0 0 0 0
0 0 0 0 0 0 0 0 0 0 0 0 0 0 0 0 0 0 0 0 0 0 0 0 0 0 0 0 0 0 0 0 0 0 0 0 0 0 0 0 0 0 0 0 0 0 0 0 0
0 0 0 0 0 0 0 0 0 0 0 0 0 0 0 0 0 0 0 0 0 0 0 0 0 0 0 0 0 0 0 0 0 0 0 0 0 0 0 0 0 0 0 0 0 0 0 0 0
0 0 0 0 0 0 0 0 0 0 0 0 0 0 0 0 0 0 0 0 0 0 0 0 0 0 0 0 0 0 0 0 0 0 0 0 0 0 0 0 0 0 0 0 0 0 0 0 0
0 0 0 0 0 0 0 0 0 0 0 0 0 0 0 0 0 0 0 0 0 0 0 0 0 0 0 0 0 0 0 0 0 0 0 0 0 0 0 0 0 0 0 0 0 0 0 0 0
0 0 0 0 0 0 0 0 0 0 0 0 0 0 0 0 0 0 0 0 0 0 0 0 0 0 0 0 0 0 0 0 0 0 0 0 0 0 0 0 0 0 0 0 0 0 0 0 0
0 0 0 0 0 0 0 0 0 0 0 0 0 0 0 0 0 0 0 0 0 0 0 0 0 0 0 0 0 0 0 0 0 0 0 0 0 0 0 0 0 0 0 0 0 0 0 0 0
0 0 0 0 0 0 0 0 0 0 0 0 0 0 0 0 0 0 0 0 0 0 0 0 0 0 0 0 0 0 0 0 0 0 0 0 0 0 0 0 0 0 0 0 0 0 0 0 0
0 0 0 0 0 0 0 0 0 0 0 0 0 0 0 0 0 0 0 0 0 0 0 0 0 0 0 0 0 0 0 0 0 0 0 0 0 0 0 0 0 0 0 0 0 0 0 0 0
0 0 0 0 0 0 0 0 0 0 0 0 0 0 0 0 0 0 0 0 0 0 0 0 0 0 0 0 0 0 0 0 0 0 0 0 0 0 0 0 0 0 0 0 0 0 0 0 0
0 0 0 0 0 0 0 0 0 0 0 0 0 0 0 0 0 0 0 0 0 0 0 0 0 0 0 0 0 0 0 0 0 0 0 0 0 0 0 0 0 0 0 0 0 0 0 0 0
0 0 0 0 0 0 0 0 0 0 0 0 0 0 0 0 0 0 0 0 0 0 0 0 0 0 0 0 0 0 0 0 0 0 0 0 0 0 0 0 0 0 0 0 0 0 0 0 0
0 0 0 0 0 0 0 0 0 0 0 0 0 0 0 0 0 0 0 0 0 0 0 0 0 0 0 0 0 0 0 0 0 0 0 0 0 0 0 0 0 0 0 0 0 0 0 0 0
0 0 0 0 0 0 0 0 0 0 0 0 0 0 0 0 0 0 0 0 0 0 0 0 0 0 0 0 0 0 0 0 0 0 0 0 0 0 0 0 0 0 0 0 0 0 0 0 0
0 0 0 0 0 0 0 0 0 0 0 0 0 0 0 0 0 0 0 0 0 0 0 0 0 0 0 0 0 0 0 0 0 0 0 0 0 0 0 0 0 0 0 0 0 0 0 0 0
0 0 0 0 0 0 0 0 0 0 0 0 0 0 0 0 0 0 0 0 0 0 0 0 0 0 0 0 0 0 0 0 0 0 0 0 0 0 0 0 0 0 0 0 0 0 0 0 0
0 0 0 0 0 0 0 0 0 0 0 0 0 0 0 0 0 0 0 0 0 0 0 0 0 0 0 0 0 0 0 0 0 0 0 0 0 0 0 0 0 0 0 0 0 0 0 0 0
0 0 0 0 0 0 0 0 0 0 0 0 0 0 0 0 0 0 0 0 0 0 0 0 0 0 0 0 0 0 0 0 0 0 0 0 0 0 0 0 0 0 0 0 0 0 0 0 0
0 0 0 0 0 0 0 0 0 0 0 0 0 0 0 0 0 0 0 0 0 0 0 0 0 0 0 0 0 0 0 0 0 0 0 0 0 0 0 0 0 0 0 0 0 0 0 0 0
Height
5872 5871 5871 5871 5872 5872 5872 5873 5873 5874 5875 5877 5878 5879 5880 5881 5882 5884 5882 5882 5883 5883 5884 5884 5884 5884 5884 5884 5884 5884 5884 5884 5884 5883 5883 5882 5882 5881 5880 5880 5879 5878 5877 5876 5876 5875 5875 5874 5874
5872 5871 5872 5872 5871 5871 5872 5872 5873 5873 5874 5875 5877 5878 5879 5879 5880 5880 5880 5880 5881 5881 5882 5882 5882 5882 5882 5882 5882 5882 5881 5881 5881 5880 5880 5879 5878 5877 5877 5876 5875 5874 5873 5873 5872 5871 5871 5870 5870
5872 5872 5872 5872 5871 5872 5872 5872 5872 5872 5873 5874 5876 5877 5878 5878 5878 5879 5879 5879 5879 5879 5879 5879 5879 5879 5879 5879 5879 5879 5878 5878 5878 5877 5876 5876 5875 5874 5873 5872 5871 5870 5870 5869 5868 5867 5866 5866 5865
5872 5872 5873 5872 5872 5872 5872 5872 5872 5872 5873 5873 5874 5876 5876 5877 5877 5877 5877 5877 5877 5877 5877 5877 5877 5877 5877 5876 5876 5876 5875 5875 5874 5874 5873 5872 5871 5870 5869 5868 5867 5866 5866 5865 5864 5863 5862 5862 5861
5872 5872 5872 5872 5871 5872 5871 5871 5871 5871 5872 5872 5873 5874 5875 5875 5876 5876 5875 5875 5875 5875 5875 5875 5875 5874 5874 5874 5873 5873 5872 5872 5871 5870 5869 5868 5868 5867 5866 5865 5864 5863 5862 5861 5860 5859 5858 5857 5857
5871 5871 5871 5871 5871 5871 5871 5871 5871 5871 5871 5871 5872 5872 5873 5873 5873 5874 5874 5873 5873 5873 5873 5873 5872 5872 5871 5871 5870 5870 5869 5869 5868 5867 5866 5865 5864 5863 5862 5861 5860 5859 5858 5856 5856 5855 5854 5853 5852
5870 5870 5869 5870 5870 5871 5871 5871 5870 5870 5870 5870 5870 5871 5870 5871 5871 5872 5872 5871 5870 5870 5870 5870 5869 5869 5868 5868 5867 5867 5866 5865 5864 5863 5862 5861 5860 5859 5858 5857 5856 5855 5853 5852 5851 5850 5849 5849 5848
5867 5868 5867 5868 5868 5869 5870 5869 5869 5869 5869 5869 5869 5869 5869 5869 5869 5869 5870 5869 5868 5867 5867 5867 5866 5866 5865 5865 5864 5863 5862 5861 5860 5859 5858 5857 5856 5855 5853 5852 5851 5850 5849 5848 5847 5846 5845 5844 5843
5865 5866 5865 5866 5867 5867 5867 5867 5867 5867 5867 5867 5867 5867 5867 5867 5866 5867 5867 5867 5866 5865 5864 5863 5863 5862 5862 5861 5860 5859 5858 5857 5856 5855 5854 5853 5851 5850 5849 5848 5846 5845 5844 5843 5842 5841 5839 5839 5838
5862 5863 5863 5864 5864 5865 5865 5865 5865 5865 5864 5864 5864 5864 5864 5864 5863 5863 5864 5864 5863 5862 5861 5860 5859 5858 5858 5857 5856 5855 5854 5853 5852 5851 5849 5848 5847 5845 5844 5843 5841 5840 5839 5837 5836 5835 5834 5833 5832
5858 5859 5859 5860 5861 5861 5862 5862 5862 5862 5862 5861 5861 5861 5861 5860 5860 5860 5859 5859 5859 5858 5857 5856 5855 5854 5853 5852 5851 5850 5849 5848 5847 5846 5844 5843 5841 5840 5838 5837 5836 5834 5833 5832 5830 5829 5828 5827 5826
5854 5855 5855 5857 5857 5858 5858 5858 5858 5858 5858 5858 5858 5857 5857 5857 5856 5856 5855 5855 5854 5854 5853 5851 5850 5849 5848 5847 5846 5845 5844 5843 5842 5840 5839 5837 5836 5834 5833 5831 5830 5828 5827 5825 5824 5823 5821 5820 5819
5849 5850 5851 5852 5852 5853 5853 5854 5854 5854 5854 5853 5853 5853 5853 5853 5852 5852 5851 5850 5849 5848 5848 5847 5845 5844 5843 5842 5841 5840 5839 5838 5836 5835 5834 5832 5830 5829 5827 5826 5824 5822 5820 5819 5818 5816 5815 5813 5812
5843 5844 5845 5846 5847 5847 5848 5848 5849 5849 5849 5849 5849 5849 5848 5848 5847 5847 5846 5845 5844 5843 5843 5842 5841 5839 5838 5837 5836 5835 5834 5832 5831 5830 5828 5827 5825 5823 5822 5820 5818 5816 5814 5813 5811 5809 5808 5806 5805
5836 5838 5840 5840 5840 5841 5843 5844 5844 5844 5844 5844 5844 5843 5843 5842 5841 5841 5841 5840 5839 5838 5837 5837 5836 5835 5834 5832 5831 5830 5828 5827 5826 5824 5822 5821 5819 5817 5816 5814 5812 5810 5808 5806 5804 5802 5801 5799 5797
5829 5832 5833 5833 5835 5835 5838 5839 5838 5838 5838 5838 5838 5838 5837 5836 5836 5835 5835 5834 5833 5832 5831 5831 5830 5829 5828 5827 5826 5824 5823 5821 5820 5818 5816 5815 5813 5811 5809 5807 5805 5803 5801 5799 5797 5795 5793 5791 5790
5822 5824 5826 5827 5828 5829 5831 5833 5831 5831 5832 5832 5832 5832 5831 5830 5830 5829 5829 5828 5827 5826 5825 5825 5824 5823 5822 5821 5820 5819 5817 5815 5814 5812 5810 5808 5806 5804 5802 5800 5797 5795 5793 5791 5789 5787 5785 5783 5781
5815 5816 5818 5820 5820 5821 5823 5826 5825 5824 5826 5826 5826 5826 5825 5824 5824 5823 5823 5822 5821 5820 5820 5819 5818 5817 5816 5815 5814 5812 5811 5809 5808 5806 5804 5801 5799 5797 5795 5792 5790 5788 5785 5783 5781 5779 5777 5775 5773
5806 5808 5811 5812 5812 5813 5816 5818 5818 5817 5819 5820 5820 5820 5819 5818 5818 5817 5816 5816 5815 5814 5814 5813 5812 5811 5810 5809 5808 5806 5804 5803 5801 5799 5797 5794 5792 5789 5787 5785 5782 5780 5777 5775 5773 5771 5768 5766 5764
5799 5801 5803 5805 5804 5805 5807 5810 5811 5811 5812 5813 5813 5813 5813 5812 5811 5810 5810 5809 5809 5808 5808 5807 5806 5805 5804 5803 5801 5800 5798 5796 5794 5792 5789 5787 5784 5782 5779 5776 5774 5772 5769 5766 5764 5762 5760 5757 5754
5791 5793 5795 5796 5796 5796 5798 5802 5805 5804 5804 5805 5806 5806 5806 5805 5805 5804 5803 5803 5802 5802 5801 5801 5800 5799 5798 5796 5795 5793 5791 5789 5787 5784 5782 5779 5777 5774 5771 5768 5765 5763 5760 5758 5755 5752 5750 5748 5744
5783 5785 5786 5787 5788 5789 5790 5792 5799 5797 5797 5798 5798 5799 5798 5798 5798 5797 5797 5796 5796 5796 5795 5794 5794 5792 5791 5790 5788 5786 5784 5782 5779 5777 5774 5771 5768 5765 5762 5759 5756 5754 5751 5748 5745 5742 5739 5737 5734
5775 5776 5777 5778 5779 5781 5783 5782 5790 5790 5790 5791 5791 5791 5791 5791 5791 5790 5790 5790 5789 5789 5788 5788 5787 5786 5784 5783 5781 5779 5776 5774 5771 5769 5766 5763 5759 5756 5753 5750 5747 5744 5741 5738 5735 5732 5728 5725 5722
5766 5768 5769 5769 5770 5773 5778 5775 5779 5783 5783 5783 5784 5784 5784 5784 5784 5783 5783 5783 5783 5782 5781 5780 5780 5778 5777 5775 5773 5771 5768 5766 5763 5760 5757 5754 5750 5747 5744 5740 5737 5734 5731 5727 5724 5721 5717 5714 5710
5759 5761 5761 5762 5762 5766 5769 5768 5772 5776 5776 5776 5777 5777 5777 5777 5777 5776 5777 5776 5776 5775 5774 5773 5772 5770 5769 5767 5765 5762 5760 5757 5754 5751 5748 5744 5741 5737 5734 5730 5727 5723 5720 5716 5713 5709 5705 5701 5698
5751 5752 5754 5755 5756 5758 5759 5760 5766 5768 5768 5768 5769 5769 5770 5770 5769 5769 5769 5769 5768 5768 5767 5765 5764 5762 5761 5758 5756 5754 5751 5748 5744 5741 5738 5734 5730 5727 5723 5720 5716 5712 5708 5705 5701 5697 5693 5689 5684
5742 5744 5747 5747 5747 5748 5751 5754 5757 5760 5760 5761 5761 5762 5762 5762 5762 5762 5762 5762 5761 5760 5759 5757 5756 5754 5752 5750 5747 5744 5741 5738 5734 5731 5727 5724 5720 5716 5712 5708 5705 5701 5697 5693 5689 5684 5680 5675 5671
5736 5738 5739 5739 5739 5740 5743 5746 5750 5752 5753 5754 5755 5755 5755 5755 5755 5755 5755 5754 5753 5752 5751 5749 5747 5745 5743 5740 5737 5734 5731 5727 5724 5720 5716 5712 5709 5705 5701 5697 5693 5688 5684 5680 5676 5671 5666 5661 5656
5728 5730 5731 5732 5733 5734 5735 5742 5743 5744 5745 5747 5747 5748 5748 5748 5748 5747 5747 5746 5745 5744 5742 5741 5738 5736 5733 5730 5727 5724 5720 5717 5713 5709 5705 5701 5697 5693 5689 5685 5680 5676 5671 5667 5662 5657 5652 5647 5641
5719 5722 5724 5725 5726 5727 5728 5735 5735 5736 5737 5738 5739 5740 5741 5741 5740 5740 5739 5738 5737 5735 5733 5731 5729 5726 5723 5720 5716 5713 5709 5705 5701 5697 5693 5689 5685 5680 5676 5672 5667 5663 5658 5653 5648 5643 5637 5631 5625
Wind_Speed
1 1 1 2 3 4 4 6 7 9 10 10 9 9 7 7 7 8 9 8 8 9 9 10 10 11 11 11 12 12 13 14 15 16 16 17 18 19 19 20 20 20 20 20 20 20 20 20 19
1 0 1 2 2 3 3 4 6 7 9 9 9 8 7 7 7 7 8 8 8 9 9 10 10 11 11 12 12 13 13 14 15 16 17 17 18 19 19 20 20 20 21 21 21 21 20 20 20
1 0 1 2 2 2 3 3 5 7 7 7 7 7 7 8 7 8 9 9 9 9 10 10 10 11 11 12 13 13 14 15 16 16 17 17 18 19 19 19 20 20 21 21 21 21 21 21 20
3 2 2 2 2 2 3 3 5 6 6 6 6 6 7 8 8 8 10 10 11 11 11 12 12 12 12 13 13 14 15 15 16 16 17 18 18 18 19 19 20 20 20 21 21 21 21 21 21
5 4 4 3 3 3 3 3 4 5 5 4 4 5 6 7 8 8 9 10 11 11 11 12 13 13 13 14 14 15 15 16 16 17 18 18 18 19 19 20 20 20 21 21 21 21 21 21 21
7 6 6 5 5 5 4 4 4 4 4 4 4 4 5 6 7 7 8 9 11 11 11 11 12 13 13 14 14 15 16 16 17 17 18 18 19 20 20 21 21 21 22 22 22 22 22 22 22
9 9 8 8 7 6 6 5 5 4 4 4 4 4 6 7 7 7 7 9 11 12 12 12 12 13 14 15 15 16 16 17 18 18 19 20 20 21 21 22 22 22 23 23 23 23 23 23 23
12 11 11 10 9 9 8 8 7 6 6 6 5 5 6 7 7 8 8 9 11 12 13 13 14 15 15 16 17 17 18 19 19 20 20 21 22 22 23 23 23 24 24 24 24 25 25 25 25
15 15 14 13 12 11 10 10 9 9 8 8 8 8 8 9 10 10 10 10 12 14 15 15 16 17 18 18 19 19 20 20 21 22 22 23 23 24 24 25 25 25 26 26 26 27 27 27 27
18 18 17 15 14 13 13 12 12 12 12 11 11 11 11 12 12 13 13 13 14 16 17 18 18 19 20 20 21 21 22 22 23 23 24 24 25 25 26 26 27 27 27 28 28 28 29 29 29
22 21 20 18 17 16 16 15 15 15 15 15 15 15 15 15 15 16 16 16 16 17 19 20 21 21 22 22 22 23 23 24 24 25 25 25 26 26 27 27 28 28 29 29 29 30 30 31 31
25 24 23 21 20 20 19 19 18 18 18 19 18 18 18 18 18 19 19 19 19 19 20 21 22 23 23 23 23 24 24 25 25 25 25 25 26 27 27 28 28 29 29 30 30 30 31 31 32
28 28 27 25 24 23 23 22 21 21 21 21 21 21 21 21 21 21 21 21 22 22 22 22 22 23 23 23 24 24 24 24 25 25 25 25 26 27 27 28 28 29 29 30 30 31 31 32 33
31 30 29 28 28 27 27 26 24 25 24 24 23 23 23 23 23 23 23 23 23 23 23 23 23 23 24 24 24 24 24 25 25 25 26 26 27 27 28 28 29 30 30 31 31 32 33 33 34
34 33 32 32 32 31 30 29 28 27 27 26 25 25 25 25 25 24 24 24 24 24 24 23 23 23 24 24 24 25 25 26 26 27 27 27 28 28 29 30 30 31 31 31 32 33 33 34 35
36 35 35 35 34 33 32 30 31 29 28 28 27 26 26 26 26 25 25 24 24 24 24 24 24 24 24 24 25 26 26 26 27 27 28 29 29 30 31 31 32 32 33 33 34 34 34 35 36
37 37 37 37 36 35 34 32 32 31 30 29 28 27 27 26 26 26 25 24 24 24 24 24 24 24 25 25 26 26 26 27 28 28 29 30 30 31 32 32 33 33 34 34 35 35 35 36 36
38 39 39 38 38 37 36 33 34 34 31 29 29 28 27 27 27 26 25 25 24 24 24 24 24 25 25 26 26 26 27 28 29 29 30 30 31 32 32 32 33 33 33 34 34 34 35 35 35
39 40 39 39 40 41 38 35 34 35 32 30 29 29 28 27 27 26 25 24 24 24 24 24 24 25 25 26 26 27 28 28 29 30 31 31 32 32 33 33 33 34 34 34 34 34 35 36 36
39 39 39 39 41 42 39 36 34 35 34 31 30 29 28 27 27 26 25 25 25 25 24 24 25 25 26 26 27 28 28 29 30 31 32 32 33 33 34 34 34 34 34 35 35 36 37 38 39
39 39 38 39 40 42 40 36 34 35 34 32 29 29 28 28 27 26 25 25 25 24 24 25 25 26 26 27 28 29 29 30 31 32 33 33 34 34 35 35 36 36 37 37 38 39 40 40 42
38 38 39 39 41 41 41 39 32 33 32 31 30 29 28 28 28 26 25 25 25 25 25 25 26 26 27 27 29 29 30 31 33 34 34 35 35 36 37 37 38 38 39 40 41 42 43 43 44
39 38 39 40 41 41 38 40 32 31 31 30 30 28 28 27 27 26 25 25 25 25 26 26 27 27 28 29 30 31 32 33 34 35 36 37 37 38 39 39 40 41 42 42 43 44 45 46 46
38 38 40 41 41 40 34 38 34 28 29 30 30 29 28 27 26 26 25 26 26 26 27 27 28 29 30 30 31 32 33 35 36 37 38 39 40 40 41 42 42 43 44 44 45 46 47 48 49
37 37 39 40 40 39 35 38 34 28 27 29 29 28 28 27 27 26 26 26 27 27 28 29 29 30 31 32 33 34 35 37 38 39 40 40 41 42 43 43 44 44 45 46 47 48 49 50 52
35 37 39 40 40 38 36 36 32 28 27 28 28 27 27 27 27 26 26 27 27 28 29 30 30 31 32 34 35 36 38 39 40 41 42 42 43 44 44 45 45 46 46 48 49 50 52 53 54
35 36 36 38 38 38 37 35 31 27 26 27 27 27 26 26 26 26 26 27 28 29 30 30 31 33 34 36 37 38 40 41 42 43 44 45 45 45 45 46 47 48 49 50 51 52 53 55 56
34 34 36 37 38 37 36 33 30 26 26 25 25 25 26 26 26 26 27 28 29 30 31 32 33 35 37 38 40 41 42 43 44 45 46 46 47 47 47 48 49 50 51 52 53 54 55 56 58
34 34 35 37 38 37 35 31 27 26 25 24 25 25 25 26 26 27 28 29 30 31 33 34 36 37 39 40 42 43 44 45 46 47 47 47 48 49 49 50 50 51 52 54 55 56 57 59 61
35 35 34 36 36 36 35 31 27 27 26 26 26 26 26 26 27 28 29 30 32 33 35 36 38 39 41 42 44 45 46 47 47 48 48 49 49 50 50 51 52 53 54 55 57 58 59 61 63
Wind_Direction
43 94 166 184 196 197 196 196 192 192 195 195 198 200 202 206 215 225 228 229 234 241 246 251 255 259 265 269 272 275 278 279 281 283 284 286 286 287 287 286 285 284 283 282 281 279 277 276 275
35 82 166 166 179 183 184 186 184 186 191 197 201 205 208 218 222 230 234 237 239 243 249 255 259 262 267 270 273 275 278 279 281 282 283 283 284 285 285 285 284 283 282 280 279 278 276 274 273
261 216 184 168 157 162 167 175 178 181 188 196 202 206 211 226 232 241 246 249 250 250 254 259 263 267 269 272 274 275 277 279 280 280 281 282 283 283 284 284 283 282 281 279 278 277 275 273 271
243 235 221 198 175 171 168 177 185 187 191 201 206 210 216 231 241 249 255 259 257 257 260 263 267 269 271 273 275 276 277 278 279 280 281 281 282 282 282 283 282 281 281 279 277 275 274 272 270
243 240 237 228 220 212 196 199 192 192 200 208 213 219 226 235 244 250 258 263 264 262 263 265 268 269 271 274 275 276 278 279 280 281 281 281 281 281 282 282 282 281 280 279 278 275 273 271 269
243 245 244 243 238 239 228 224 214 198 201 214 217 222 238 244 247 249 255 263 269 270 269 270 272 273 274 275 276 277 277 278 279 280 281 281 282 281 281 281 281 281 280 279 278 276 273 271 269
243 244 246 247 247 247 249 247 238 226 221 230 234 235 249 255 257 257 262 268 273 276 277 277 277 278 279 279 280 279 279 279 280 280 280 280 281 281 281 280 280 280 280 279 278 276 274 271 269
243 244 245 249 252 253 255 254 251 251 247 248 249 247 250 260 268 270 271 272 275 278 281 282 282 282 282 282 282 281 281 281 280 281 280 280 281 281 280 280 280 279 278 277 277 276 274 272 270
245 245 247 251 254 255 255 256 256 256 256 255 255 256 257 263 269 274 275 274 276 280 282 283 283 283 284 284 284 283 283 282 282 282 281 281 281 280 280 280 279 278 277 276 275 274 273 272 270
246 247 249 251 254 255 254 256 260 261 262 263 262 263 265 268 271 274 275 276 277 279 281 283 283 283 284 284 284 284 284 284 284 284 283 282 281 281 280 280 279 278 276 276 275 274 273 272 270
246 247 250 252 254 257 257 257 259 262 264 266 267 268 270 274 277 279 279 279 279 279 281 283 283 284 284 284 283 283 284 284 284 284 283 283 282 282 281 280 279 278 277 276 275 274 273 272 271
246 248 251 253 253 254 256 259 261 263 265 267 269 270 272 274 276 278 280 281 281 281 281 283 284 284 284 284 284 284 284 284 284 284 284 283 283 283 282 281 280 279 278 277 276 275 274 273 272
245 248 250 252 253 254 256 258 261 264 265 268 270 271 272 273 275 276 279 281 282 282 282 282 282 283 284 284 285 286 286 285 285 285 285 285 285 284 283 282 281 280 280 279 278 276 275 274 273
245 247 249 252 253 255 256 258 260 263 266 268 270 271 273 274 274 275 277 279 281 281 281 280 280 281 282 283 284 285 285 285 285 285 285 285 285 284 284 283 282 281 280 280 279 278 277 277 275
245 246 248 251 252 255 257 259 261 262 265 267 269 271 272 274 275 276 276 277 278 279 279 278 278 279 280 281 282 283 284 285 285 286 286 285 285 285 285 284 283 282 281 281 280 280 279 278 277
244 245 248 251 253 256 257 259 262 263 264 266 268 269 271 273 274 275 275 275 275 276 277 278 278 278 279 280 281 282 283 284 284 285 285 285 285 285 285 284 283 283 282 281 280 279 279 278 277
245 246 248 251 254 256 258 259 262 262 263 265 267 268 270 272 273 273 274 274 274 274 275 276 277 278 279 280 282 282 283 283 284 285 286 286 286 286 286 285 284 283 282 281 280 280 279 279 278
246 248 249 250 253 254 256 257 260 262 261 263 265 267 268 270 271 271 271 271 271 272 274 275 276 277 278 280 281 281 283 284 285 285 286 286 287 287 286 285 285 284 283 283 282 281 280 279 278
247 248 249 250 252 254 255 255 257 260 261 261 262 264 265 266 267 268 268 269 269 270 271 273 275 277 278 278 279 281 283 284 285 286 286 286 287 287 286 286 286 285 285 284 283 281 281 280 279
249 250 251 252 254 255 255 254 254 257 260 261 261 262 262 263 263 265 265 266 267 268 269 271 273 275 276 277 279 281 283 285 285 286 286 287 287 288 287 287 286 285 285 284 283 282 282 282 281
250 250 251 252 253 257 257 254 254 256 257 259 260 260 260 260 261 262 263 264 265 266 268 270 273 274 275 276 278 281 284 285 286 286 287 287 288 288 288 287 286 285 285 284 284 284 283 283 283
249 250 251 252 254 256 259 258 252 255 257 258 259 258 257 258 259 259 261 262 263 265 267 269 272 274 275 277 279 282 284 286 287 287 287 288 288 288 288 287 286 286 286 285 285 284 284 284 284
249 249 251 252 254 256 257 261 254 253 255 256 257 257 257 258 258 258 259 260 261 264 266 269 272 274 276 278 280 283 285 287 288 288 288 288 289 289 289 288 287 287 286 286 285 285 285 285 285
249 249 250 252 255 256 256 260 259 254 253 254 255 256 257 257 256 257 259 259 261 264 266 269 272 274 277 279 282 285 287 288 289 289 288 288 289 289 289 288 287 287 286 286 286 286 286 286 286
247 249 251 253 255 257 256 257 261 258 254 253 254 255 255 255 256 257 258 260 262 264 267 269 272 275 277 280 283 285 288 289 290 290 289 289 290 290 289 289 288 287 287 287 287 287 287 287 288
246 248 249 253 255 256 256 257 258 257 255 253 253 253 254 255 255 257 259 260 262 265 268 270 273 276 279 282 284 286 288 290 291 291 290 290 290 290 290 289 289 288 288 288 288 288 289 289 289
245 247 249 252 255 256 256 258 258 256 254 251 251 253 254 255 257 258 260 261 263 266 269 272 275 278 281 283 286 287 289 290 291 291 291 291 291 290 290 289 289 289 289 289 289 289 289 290 290
245 245 245 249 254 257 257 256 258 254 252 251 252 254 255 256 258 260 262 263 265 268 271 274 277 279 282 285 287 288 289 290 291 291 291 291 291 290 290 290 289 290 290 290 290 291 291 291 291
245 244 245 249 252 255 257 257 257 255 252 251 253 254 255 258 260 262 265 266 268 271 274 276 279 282 284 286 288 289 290 290 291 291 291 291 291 291 290 290 290 290 291 291 291 292 292 292 293
243 243 244 247 250 253 256 255 254 254 254 254 255 256 258 261 263 265 266 268 271 273 276 279 282 284 286 287 289 290 290 291 291 291 291 292 292 291 291 291 291 291 292 292 292 292 293 294 294